Flag for U.S.A. Weather past 2 weeks in Oklahoma City, Oklahoma, U.S.A.

Now
82 °F

Partly cloudy.


Feels Like: 89 °F
Forecast: 74 / 86 °F
Wind: 10 mph from Northeast

Location: Will Rogers World Airport

Current Time: Jul 30, 2015 at 10:27:07 PM

Latest Report: Jul 30, 2015 at 10:03 PM


Visibility: 10 mi

Pressure: 30.12 "Hg

Humidity: 79%

Dew point: 75 °F

Location of Oklahoma CityLocation

Historic Weather in Oklahoma City — Graph

°F

Oklahoma City temperature yesterday

Maximum temperature yesterday: 96 °F (at 3:52 PM)
Minimum temperature yesterday: 71 °F (at 4:52 AM)
Average temperature yesterday: 84 °F

Past Weeks' High & Low Weather Summary

 TemperatureHumidityPressure
High98 °F (Jul 20, 2:52 PM)100% (Jul 21, 5:52 AM)30.16 "Hg (Jul 21, 5:52 AM)
Low70 °F (Jul 16, 6:52 AM)38% (Jul 20, 2:52 PM)29.76 "Hg (Jul 22, 6:52 PM)
Average83 °F70%29.89 "Hg
* Reported Jul 15 8:52 PM — Jul 30 8:52 PM, Oklahoma City, Weather by CustomWeather, © 2015

Note: Actual official high and low records may vary slightly from our data, if they occured in-between our weather recording intervals... More about our weather records

Advertising

Oklahoma City weather history for previous 24 hours

 ConditionsComfort  
Time TempWeatherWind HumidityBarometerVisibility
8:52 PM
Thu, Jul 30
83 °FBroken clouds.10 mph74%30.05 "Hg10 mi
7:52 PM85 °FPartly sunny.12 mph68%30.04 "Hg10 mi
6:52 PM87 °FPartly sunny.10 mph61%30.04 "Hg10 mi
5:52 PM89 °FPartly sunny.14 mph59%30.02 "Hg10 mi
4:52 PM91 °FPartly sunny.17 mph54%30.04 "Hg10 mi
3:52 PM89 °FPartly sunny.9 mph59%30.07 "Hg10 mi
2:52 PM88 °FScattered clouds.13 mph59%30.09 "Hg10 mi
1:57 PM87 °FPartly sunny.18 mph63%30.16 "Hg10 mi
12:52 PM87 °FBroken clouds.15 mph63%30.11 "Hg10 mi
11:52 AM91 °FScattered clouds.N/A52%30.10 "Hg10 mi
10:52 AM90 °FScattered clouds.5 mph50%30.09 "Hg10 mi
9:52 AM87 °FSunny.6 mph59%30.09 "Hg10 mi
8:52 AM83 °FScattered clouds.5 mph74%30.09 "Hg10 mi
7:52 AM79 °FPassing clouds.3 mph88%30.08 "Hg10 mi
6:52 AM76 °FPassing clouds.6 mph94%30.06 "Hg10 mi
5:52 AM76 °FPassing clouds.6 mph94%30.05 "Hg10 mi
4:52 AM77 °FPassing clouds.7 mph90%30.05 "Hg10 mi
3:52 AM79 °FPassing clouds.7 mph82%30.05 "Hg10 mi
2:52 AM79 °FPassing clouds.8 mph74%30.05 "Hg10 mi
1:52 AM78 °FPassing clouds.5 mph79%30.04 "Hg10 mi
12:52 AM79 °FPassing clouds.3 mph77%30.04 "Hg10 mi
11:52 PM
Wed, Jul 29
81 °FPassing clouds.6 mph72%30.03 "Hg10 mi
10:52 PM83 °FPassing clouds.6 mph68%30.03 "Hg10 mi
Weather by CustomWeather, © 2015

See weather overviewHow to use our weather pages